Aberdeen, SD

11:17 PM CST on January 19, 2017 (GMT -0600)
Roosevelt Crystals Subdivision | | Change Station
Active Advisory: Dense Fog Advisory

Elev 1293 ft 45.45 °N, 98.46 °W | Updated 3 minutes ago

Overcast
Overcast
36.8 °F
Feels Like 37 °F
N
2.0
Wind Variable Wind from SSE
Gusts 9.0 mph

Today
High -- | Low -- °F
--% Chance of Precip.
Yesterday
High -- | Low -- °F
Precip. -- in
Pressure 29.55 in
Visibility 5.0 miles
Clouds Overcast 300 ft
Windchill 37 °F
Dew Point 35 °F
Humidity 92%
Rainfall 0.09 in
Snow Depth Not available.
8:06 AM 5:22 PM
Waning Gibbous, 47% visible
METAR KABR 200453Z AUTO 15010KT 5SM BR OVC003 01/00 A2952 RMK AO2 SLP006 T00110000
Pressure 29.55 in
Visibility 5.0 miles
Clouds Overcast 300 ft
Windchill 37 °F
Dew Point 35 °F
Humidity 92%
Rainfall 0.09 in
Snow Depth Not available.
8:06 AM 5:22 PM
Waning Gibbous, 47% visible
METAR KABR 200453Z AUTO 15010KT 5SM BR OVC003 01/00 A2952 RMK AO2 SLP006 T00110000

Get Your Daily Forecast Email!

Thanks for signing up!

Be on the lookout for a verification email in your inbox.

You'll start receiving the daily forecast at 8 AM.

×

10-Day Weather Forecast

Almanac

Astronomy

Jan. 19, 2017 Rise Set
Actual Time
Civil Twilight
Nautical Twilight
Astronomical Twilight
Moon
Length of Visible Light
Length of Day
Tomorrow will be .
, % of the Moon is Illuminated

Today's Extremes

State Highs State Lows

Community

WunderPhotos

Upload Photos

1,962,540 photos uploaded!

WunderBlog® & News

Nearby

Air Quality

  Air Quality AQ Index Pollutant
Not available.

Snow Depth

Station Depth Elevation

Earthquake Activity

City Distance Mag. Time & Date
Minimum magnitude displayed is 2.5.

Coastal Water Temperatures

Place Temperature

Stations

Nearby Weather Stations

Station Location Temp. Windchill Dew Point Humidity Wind Precip. Elev Updated Type
                   

Watches & Warnings

Dense Fog Advisory
Issued: 7:47 PM CST Jan. 19, 2017 – National Weather Service

... Dense fog advisory remains in effect until noon CST Friday...

* visibility... a quarter mile or less.

* Impacts... low visibility will result in difficult driving
conditions.

Precautionary/preparedness actions...

A dense fog advisory means visibilities will frequently be
reduced to less than one quarter mile. If driving... slow down...
use your headlights... and leave plenty of distance ahead of you.



Dorn